Погода в Кельбаджаре

Азербайджан     40°06′25″N   46°02′23″E
темп.,
°C
ветер,
м/с
пор.,
м/с
влажн.,
%
обл.,
%
осадки,
мм/ч
давл.,
гПа
погр.,
м
21 июня, пн
пн2101:00+9ююв32840 0.0 102018
04:00+9ю32650 0.0 101916
07:00+12юв22650 0.0 101850
10:00+17в33550 0.0 1017645
13:00+20всв45520 0.0 10161185
16:00+20в44520 0.0 10151172
19:00+17в34730 0.0 1016503
22:00+11ю22880 0.0 101915
22 июня, вт
вт2201:00+10ю22850 0.0 101913
04:00+10ю32780 0.0 101815
07:00+13юв22660 0.0 101849
10:00+17в33430 0.0 1016549
13:00+20всв45420 0.0 10151347
16:00+20в45390 0.0 10151256
19:00+16в34610 0.0 1016188
22:00+10ю43570 0.0 102029
23 июня, ср
ср2301:00+10ю32481 0.0 101916
04:00+10ююв33450 0.0 101922
07:00+12ююв32510 0.0 101833
10:00+18в34380 0.0 1016625
13:00+21в46360 0.0 10151362
16:00+21в45360 0.0 10151279
19:00+16в34590 0.0 1017161
22:00+11ю43500 0.0 102031
24 июня, чт
чт2401:00+11ю33420 0.0 101919
04:00+11ю32420 0.0 101813
07:00+13ююв22500 0.0 101823
10:00+18в33410 0.0 1016611
13:00+21в46370 0.0 10151374
16:00+21в45360 0.0 10151256
19:00+17в34610 0.0 1017196
22:00+10ю33620 0.0 102021
25 июня, пт
пт2501:00+11ю43480 0.0 101923
04:00+11ю33420 0.0 101716
07:00+13ююв22500 0.0 101728
10:00+19в34370 0.0 1015700
13:00+22в46330 0.0 10141342
16:00+22в46320 0.0 10131423
19:00+18в34590 0.0 1015126
22:00+11ююз33461 0.0 101820